Zurück zum Katalog

SL-14 R/B

AktivPO
NORAD 20306·ROCKET BODY·🇷🇺 Russia

Gestartet Oct 24, 1989 von Plesetsk Cosmodrome

Loading…

Nächste Überflüge (nächste 24 Stunden)

TLE

AktuellSource: Space-Track

Epoche: Sep 14, 2026, 09:24 UTC

1 20306U 89086B   26257.39187086 -.00000212  00000-0 -59042-3 0  9996
2 20306  82.5504 235.7895 0017423  49.5874 104.4587 13.16276468772133

Verfolge SL-14 R/B in Echtzeit mit AllMySat

Download on the App Store